Terminal Aerodrome Forecast
Issued by NWS Duluth, MN

Home | Current Version | Previous Version | Text Only | Print | Product List | Glossary On
Versions: 1 2 3 4 5 6 7 8 9 10 11 12 13 14 15 16 17 18 19 20 21 22 23 24 25 26 27 28 29 30
000
FTUS43 KDLH 192235 AAA
TAFINL
TAF AMD
KINL 192235Z 1923/2018 29014G19KT P6SM SCT013
     FM200100 25006KT P6SM BKN015
     FM200500 27005KT 5SM BR BKN008
     FM201400 VRB03KT P6SM BKN010
     FM201600 VRB03KT P6SM BKN020=

USA.gov is the U.S. government's official web portal to all federal, state and local government web resources and services.